Location: Rehoboth Beach
(38.7438°N, 75.1341°W)
Time: 03:08:32
(UTC-04:00)

Cosmos 1452 Rocket - Visible Passes

Search period start: 24 June 2017 00:00
Search period end: 04 July 2017 00:00
Orbit: 767 x 775 km, 74.1° (Epoch: 23 June)

Date Brightness Start Highest point End Pass type
(mag) Time Alt. Az. Time Alt. Az. Time Alt. Az.
30 Jun 6.0 04:55:55 10° SE 04:59:33 19° E 05:03:13 10° NE visible
01 Jul 6.4 04:22:43 10° ESE 04:23:50 11° E 04:24:57 10° E visible
03 Jul 5.0 04:48:31 10° SSE 04:53:14 35° E 04:57:59 10° NE visible
